User: anonymous
Location: Unspecified
(0.0000°N, 0.0000°E)
Time: 05:23:05
(UTC+00:00)
Language:

USA 200 - Orbit

View from above orbital plane
View from above orbital plane
View from above satellite
View from above satellite

Ground track
Ground track

The orbit data is extracted from the following two-line orbital elements,

1 32706U 08010A   14291.32142414 -.00000282  00000-0  00000-0 0    01
2 32706  63.1143 112.7646 6929503 268.0458  18.2607  2.00608615    04
Epoch (UTC): 18 October 2014 07:42:51
Eccentricity: 0.6929503
inclination: 63.1143°
perigee height: 1776 km
apogee height: 38580 km
right ascension of ascending node: 112.7646°
argument of perigee: 268.0458°
revolutions per day: 2.00608615
mean anomaly at epoch: 18.2607°
orbit number at epoch: 0

The dashed part of the orbit path shows where the satellite is in the earth's shadow,  

DLR